Volver al catálogo

FENGYUN 1C DEB

ActivoSSO
NORAD 36681·DEBRIS·🇨🇳 China

Lanzado May 10, 1999 desde Taiyuan Satellite Launch Center

Loading…

Próximos Pases (próximas 24 horas)

TLE

ActualizadoSource: Space-Track

Época: Sep 11, 2026, 04:51 UTC

1 36681U 99025DZB 26254.20247684  .00000626  00000-0  37042-3 0  9994
2 36681  98.7089 249.2177 0042716 296.9583  62.7229 14.10794987765995

Sigue FENGYUN 1C DEB en tiempo real con AllMySat

Download on the App Store